#timestamp,LO_Frequency,Hit,StdDev 
1679277615.5,286047001.2,N
1679277635.3,286047001.0,N
1679277655.1,286047000.1,N
1679277675.9,286046998.2,N
1679277695.7,286046999.7,N
1679277715.5,286047000.2,N
1679277735.4,286047000.9,N
1679277755.2,286047000.7,N
1679277775.0,286047000.8,N
1679277776.0,286047000.8,N
1679277795.8,286046999.9,N
1679277815.6,286047000.8,N
1679277835.5,286047000.5,N
1679277855.3,286047001.2,N
1679277875.1,286047000.6,N
1679277895.9,286046998.5,N
1679277915.7,286046999.3,N
1679277935.6,286046996.5,Y
1679277955.4,286046996.6,P
1679277975.2,286046997.0,N
1679277995.1,286046997.4,N
1679277996.0,286046997.4,N
1679278015.8,286046996.6,N
1679278035.6,286046996.9,N
1679278055.5,286046999.1,N
1679278075.3,286046998.1,N
1679278095.2,286047000.4,N
1679278115.9,286047001.0,N
1679278135.7,286047000.7,N
1679278155.6,286047001.1,N
1679278175.4,286046999.5,N
1679278195.2,286046997.4,N
1679278215.1,286046996.6,N
1679278216.0,286046996.6,N
1679278235.8,286046999.6,N
1679278255.7,286046997.3,N
1679278275.5,286046999.4,N
1679278295.3,286046999.0,N
1679278315.2,286046999.1,N
1679278335.9,286046998.3,N
1679278355.7,286046999.8,N
1679278375.6,286047000.2,N
1679278395.4,286046996.5,N
1679278415.2,286046997.7,N
1679278435.1,286046997.3,N
1679278436.0,286046997.3,N
1679278455.8,286046997.4,N
1679278475.7,286046997.0,N
1679278495.5,286046998.1,N
1679278515.3,286046998.5,N
1679278535.2,286046996.8,N
1679278555.0,286046996.6,N
1679278555.9,286046996.6,N
1679278575.7,286046997.7,N
1679278595.6,286046998.1,N
1679278615.4,286047000.8,N
1679278635.3,286046996.9,N
1679278655.1,286046999.1,N
1679278656.0,286046999.1,N
1679278675.8,286046996.7,N
1679278695.7,286046996.7,N
1679278715.5,286047001.2,N
1679278735.3,286046998.8,N
1679278755.2,286047001.0,N
1679278775.0,286047000.3,N
1679278775.9,286047000.3,N
1679278795.8,286046999.9,N
1679278815.6,286047000.8,N
1679278835.4,286046998.1,N
1679278855.3,286046998.7,N
1679278875.1,286047000.4,N
1679278895.9,286047001.7,N
1679278915.7,286047002.7,N
1679278935.5,286047000.1,N
1679278955.4,286046999.9,N
1679278975.2,286046999.8,N
1679278995.0,286046999.9,N
1679278995.9,286046999.9,N
1679279015.8,286047002.4,N
1679279035.6,286047001.5,N
1679279055.4,286047002.0,N
1679279075.3,286047001.8,N
1679279095.1,286047004.2,N
1679279115.9,286047005.9,Y
1679279135.7,286047003.0,P
1679279155.5,286047002.9,N
1679279175.4,286047004.1,N
1679279195.2,286047004.2,N
1679279215.1,286047005.6,Y
1679279216.0,286047005.6,P
1679279235.8,286047002.4,N
1679279255.6,286047002.1,N
1679279275.5,286047002.0,N
1679279295.3,286047004.3,Y
1679279315.1,286046998.9,P
1679279335.9,286046999.1,N
1679279355.7,286046999.2,N
1679279375.6,286046997.8,N
1679279395.4,286046995.1,N
1679279415.2,286046996.7,N
1679279435.1,286046997.2,N
1679279436.0,286046997.2,N
1679279455.8,286046997.7,N
1679279475.7,286046999.4,N
1679279495.5,286046997.4,N
1679279515.3,286046995.0,N
1679279535.2,286046995.3,N
1679279555.9,286046997.4,N
1679279575.7,286046997.0,N
1679279595.6,286046997.6,N
1679279615.4,286046997.9,N
1679279635.2,286046995.3,N
1679279655.1,286046994.4,Y
1679279656.0,286046994.4,P
1679279675.8,286046995.7,N
1679279695.7,286046997.7,N
1679279715.5,286046999.6,N
1679279735.3,286046997.1,N
1679279755.2,286046994.9,Y
1679279775.0,286046998.4,P
1679279775.9,286046998.4,N
1679279795.8,286046998.1,N
1679279815.6,286047000.3,N
1679279835.4,286047002.4,N
1679279855.3,286046999.7,N
1679279875.1,286047000.9,N
1679279895.8,286047000.7,N
1679279915.7,286046999.4,N
1679279935.5,286046998.6,N
1679279955.4,286046998.4,N
1679279975.2,286047000.4,N
1679279995.0,286047000.3,N
1679279995.9,286047000.3,N
1679280015.8,286047002.3,N
1679280035.6,286047001.6,N
1679280055.4,286047002.5,N
1679280075.3,286047001.9,N
1679280095.1,286047001.4,N
1679280115.9,286047000.0,N
1679280135.7,286047000.6,N
1679280155.5,286047000.4,N
1679280175.4,286046998.6,N
1679280195.2,286046999.1,N
1679280215.0,286047001.2,N
1679280215.9,286047001.2,N
1679280235.8,286047000.0,N
1679280255.6,286047004.1,N
1679280275.5,286047004.2,N
1679280295.3,286047005.5,Y
1679280315.1,286047003.4,P
1679280335.9,286047004.7,P
1679280355.7,286047005.3,N
1679280375.5,286047005.1,N
1679280395.4,286047005.4,N
1679280415.2,286047003.4,N
1679280435.1,286047003.1,N
1679280436.0,286047003.1,N
1679280455.8,286047004.4,N
1679280475.6,286047003.4,N
1679280495.5,286047002.9,N
1679280515.3,286047003.5,N
1679280535.1,286047004.0,Y
1679280555.9,286047000.3,P
1679280575.7,286046999.8,N
1679280595.6,286046998.9,N
1679280615.4,286046998.1,N
1679280635.2,286047001.0,N
1679280655.1,286046998.7,N
1679280656.0,286046998.7,N
1679280675.8,286047001.1,N
1679280695.6,286046998.2,N
1679280715.5,286047001.9,N
1679280735.3,286047001.9,N
1679280755.2,286047002.0,N
1679280775.9,286047002.0,N
1679280795.7,286047001.4,N
1679280815.6,286047004.0,N
1679280835.4,286047002.5,N
1679280855.2,286047001.5,N
1679280875.1,286046999.7,N
1679280876.0,286046999.7,N
1679280895.8,286047000.2,N
1679280915.7,286047000.7,N
1679280935.5,286046998.4,N
1679280955.3,286046999.3,N
1679280975.2,286047001.0,N
1679280995.0,286046998.1,N
1679280995.9,286046998.1,N
1679281015.7,286046999.6,N
1679281035.6,286046999.6,N
1679281055.4,286046998.2,N
1679281075.3,286046998.9,N
1679281095.1,286046999.6,N
1679281096.0,286046999.6,N
1679281115.8,286046999.6,N
1679281135.7,286046998.7,N
1679281155.5,286046998.4,N
1679281175.3,286046996.9,N
1679281195.2,286046998.7,N
